User: anonymous   Login
Location: Iola
(37.9240°N, 95.4000°W)
Time: 15:33:27
(UTC-06:00)
Language:

Meteor 2-10 Rocket - Orbit

View from above orbital plane
View from above orbital plane
View from above satellite
View from above satellite

Ground track
Ground track

The orbit data is extracted from the following two-line orbital elements,

1 14453U 83109B   15028.78805168  .00000153  00000-0  56667-4 0  3365
2 14453 081.1652 261.8614 0105781 061.9133 344.6567 14.24563051623608
Epoch (UTC): 28 January 2015 18:54:47
Eccentricity: 0.0105781
inclination: 81.1652°
perigee height: 734 km
apogee height: 886 km
right ascension of ascending node: 261.8614°
argument of perigee: 61.9133°
revolutions per day: 14.24563051
mean anomaly at epoch: 344.6567°
orbit number at epoch: 62360

The dashed part of the orbit path shows where the satellite is in the earth's shadow,  

DLR